Theta_e
311 311 311 311 310 308 308 309 306 322 322 307 306 302 306 306 308 313 309 309 306 304 303 301 300 301 301 304 303 297 299 294 289 294 300 301 297 293 293 285 285 288 288 287
311 311 310 311 310 308 304 304 309 322 320 303 303 305 305 308 308 309 308 306 307 304 301 296 301 302 304 303 303 300 298 292 286 289 292 297 296 299 297 294 291 286 285 286
311 310 310 310 309 308 306 308 304 309 310 309 303 303 303 303 310 308 309 307 308 304 301 300 299 301 305 304 305 314 305 294 292 287 291 294 293 297 298 295 286 288 289 291
310 310 310 310 309 308 309 312 304 308 299 301 302 304 303 300 299 306 307 305 304 302 297 299 299 302 303 304 310 302 298 290 292 294 297 297 296 296 296 296 294 290 292 293
310 309 310 310 309 308 313 305 304 306 303 305 304 303 301 302 302 303 303 302 304 303 299 301 299 302 302 300 300 297 299 291 294 293 298 298 295 297 296 296 295 294 293 291
309 310 310 310 309 309 306 309 312 307 302 302 301 301 302 302 302 303 304 304 302 302 304 306 305 305 303 302 301 296 297 295 292 288 297 296 290 295 296 297 298 297 294 299
309 310 311 309 309 309 306 307 307 304 299 301 302 305 304 302 303 300 304 303 300 307 310 308 307 305 305 305 304 303 295 294 294 289 293 284 295 302 302 299 297 299 301 301
308 309 310 310 310 310 307 308 306 306 300 303 303 303 302 304 305 304 303 307 310 310 305 297 295 296 297 301 302 301 302 297 290 286 285 292 296 300 299 296 294 299 298 300
307 308 308 309 310 310 308 308 311 311 303 301 305 302 305 300 300 302 307 312 310 308 300 295 287 287 292 293 298 302 303 300 293 291 283 282 291 300 303 301 288 299 299 300
306 307 307 308 309 310 309 307 310 309 304 307 308 302 304 308 305 302 305 306 305 306 297 294 291 291 298 293 293 293 295 297 291 290 288 293 297 300 303 291 288 299 300 299
306 307 307 308 309 310 308 305 309 308 307 308 311 311 307 306 305 300 304 304 304 302 297 296 296 294 297 295 298 296 293 291 292 291 286 284 298 299 293 295 298 299 299 299
305 306 307 307 308 309 309 304 310 312 310 307 312 312 314 314 312 307 307 306 306 308 301 299 298 295 298 295 292 300 292 294 290 290 290 294 300 294 297 299 298 298 298 300
305 305 306 307 307 309 308 304 306 309 309 309 309 308 317 317 316 318 306 308 311 309 311 302 299 296 299 292 291 295 296 295 293 290 297 297 299 298 300 299 298 299 299 299
305 306 307 308 307 307 307 303 308 309 310 305 308 318 315 321 318 316 316 312 314 314 309 304 301 297 301 293 293 290 292 292 289 289 293 294 297 296 298 299 300 301 301 301
306 307 308 307 307 308 307 305 307 311 308 303 305 313 316 316 315 314 314 313 310 308 305 302 297 300 299 298 296 289 294 291 287 285 292 291 292 296 298 297 297 298 297 298
306 307 307 307 308 308 307 308 311 312 314 305 303 314 312 315 317 314 312 309 306 306 304 300 299 302 298 291 287 295 297 296 295 291 296 295 297 297 297 295 297 298 298 298
306 306 307 308 309 307 310 308 312 310 320 307 304 303 310 315 313 311 310 310 304 304 302 298 299 297 298 292 285 295 295 295 297 297 295 293 294 292 294 294 296 297 297 297
306 307 307 309 309 308 311 314 309 312 313 313 303 303 307 313 307 306 311 305 306 302 300 299 296 299 297 288 295 295 297 297 296 295 295 294 295 294 293 294 294 293 293 295
306 307 309 311 308 314 314 312 313 317 312 307 306 301 299 312 307 309 308 307 299 303 298 296 296 295 289 294 294 295 295 294 293 294 294 292 290 290 291 291 294 292 293 295
307 308 310 312 312 314 314 313 311 311 313 311 305 307 302 307 306 304 303 305 299 295 296 299 295 292 298 299 297 296 296 295 295 291 289 289 288 287 288 290 290 293 295 296
308 304 308 307 313 313 312 310 308 308 304 307 309 308 304 311 301 300 305 299 298 291 294 291 292 290 296 299 297 297 297 296 295 294 292 291 290 287 287 287 288 288 290 291
301 300 302 305 311 311 308 304 308 305 302 308 306 306 307 307 309 301 302 298 298 291 299 291 289 294 297 297 296 295 296 296 295 294 292 291 291 291 290 289 287 286 287 287
306 301 303 309 310 296 301 298 302 302 307 308 307 305 307 308 307 303 299 295 293 299 292 291 292 296 297 295 295 295 295 296 295 293 293 292 291 292 291 290 291 290 288 287
305 306 292 303 303 305 304 304 304 309 309 307 307 306 304 303 301 298 296 295 295 288 287 288 293 295 294 295 295 294 294 295 294 293 293 293 292 290 291 291 291 292 290 290
305 307 293 304 309 311 310 311 310 311 312 309 306 304 304 299 298 296 293 291 289 289 288 293 295 294 294 294 294 294 294 294 293 293 293 292 292 290 290 291 292 291 291 291
305 306 304 309 308 309 310 310 309 312 311 311 308 303 296 296 295 295 293 289 287 291 294 296 296 294 294 293 293 294 295 294 293 293 293 292 292 291 290 290 290 290 290 289
307 306 312 309 308 310 310 309 311 315 309 303 301 296 294 298 294 293 295 293 295 296 296 296 295 294 294 294 294 295 293 293 292 292 293 293 293 291 290 288 290 291 291 291
Wind_Speed
29 30 32 31 30 33 10 6 4 3 6 2 4 6 11 16 19 6 10 12 17 7 7 6 7 0 5 9 9 6 2 4 0 5 7 6 9 5 6 6 6 1 2 7
28 29 31 31 28 20 8 5 5 4 3 3 5 8 14 10 10 10 3 4 11 6 2 3 4 4 7 9 8 3 3 1 3 9 9 6 4 4 2 1 3 3 2 6
28 29 30 31 33 25 5 4 5 6 4 4 6 7 7 10 3 2 2 2 8 5 3 3 2 5 5 8 6 10 9 3 5 7 4 3 6 5 6 6 3 5 7 5
27 27 29 30 34 36 2 2 4 3 5 7 13 8 5 8 10 4 5 5 9 14 2 1 1 4 7 9 8 5 7 4 1 4 6 14 11 11 10 7 10 9 11 10
25 27 26 27 30 39 2 5 5 5 8 8 9 8 7 8 7 9 4 5 15 5 4 6 3 6 6 1 3 4 2 3 2 5 8 11 14 12 11 12 12 9 8 9
25 23 24 24 24 22 5 6 7 4 7 6 7 7 8 9 8 7 9 1 4 10 7 3 6 3 6 3 2 4 8 6 5 7 10 9 9 5 7 8 10 5 7 10
23 22 20 22 19 13 4 4 6 4 6 8 10 12 11 10 6 5 8 7 5 3 9 7 8 9 5 9 11 8 7 6 5 5 5 9 6 14 9 5 15 15 10 17
22 21 20 18 18 15 6 5 4 4 6 9 12 14 12 10 8 6 8 6 4 2 2 3 3 3 4 6 6 8 6 4 3 4 1 5 6 9 9 13 6 16 14 15
23 22 21 19 17 17 7 8 6 5 5 3 15 9 8 4 6 7 12 7 3 7 2 2 3 3 5 4 4 7 10 5 6 3 4 5 4 15 17 10 3 12 14 15
23 23 22 20 18 17 8 6 6 4 4 6 14 5 6 7 9 4 3 8 4 5 2 3 3 4 3 4 4 4 3 5 2 1 2 2 5 15 12 4 3 12 11 9
24 23 22 19 18 16 8 9 8 3 4 9 7 10 6 6 5 4 7 7 7 5 5 4 4 5 3 5 8 5 5 3 2 1 4 4 4 3 3 0 2 5 8 6
24 23 21 19 17 14 10 5 8 7 6 7 9 11 12 7 7 3 5 2 6 4 4 5 4 2 5 4 3 6 3 3 1 1 3 3 3 3 4 5 5 6 6 9
25 24 22 20 18 14 7 6 6 4 4 6 4 7 3 3 5 5 3 4 5 3 1 2 2 7 4 4 4 3 2 3 2 4 4 5 6 4 6 9 11 10 10 8
24 23 22 21 20 15 8 5 5 5 5 3 1 3 3 3 2 5 4 3 2 2 3 4 4 3 5 3 4 4 4 2 6 5 6 8 2 5 8 8 7 8 8 10
25 25 23 23 20 14 8 6 6 7 3 4 5 7 6 9 3 7 6 5 2 1 3 3 2 3 3 3 4 3 2 2 3 3 6 4 8 10 12 11 9 11 11 13
27 27 27 22 16 8 4 3 5 9 5 2 3 4 10 15 3 7 2 4 3 1 4 3 3 2 3 3 3 1 8 7 5 3 10 10 14 16 18 19 18 16 13 12
27 26 23 18 12 4 3 2 2 6 2 2 0 5 6 3 15 2 0 2 2 3 3 3 4 2 4 3 2 6 8 7 11 15 14 12 14 16 17 18 18 17 16 14
29 24 19 11 3 7 4 1 5 4 3 3 2 4 4 3 7 2 2 1 2 3 3 3 4 3 3 3 6 7 11 10 11 13 13 12 14 16 17 17 15 15 15 13
31 21 12 2 2 2 3 2 2 2 2 3 1 1 1 3 4 3 2 2 2 2 4 2 3 3 5 5 5 10 10 8 10 13 12 13 13 16 18 19 16 12 13 12
29 5 3 3 3 2 2 1 3 3 3 3 3 4 2 0 1 2 2 2 3 3 1 1 4 3 4 5 11 9 9 9 9 7 15 16 16 15 19 18 18 15 12 13
5 5 3 6 12 2 4 2 3 2 1 2 4 5 1 3 2 1 1 2 1 3 1 1 3 3 1 6 11 8 8 8 8 8 8 9 10 13 13 16 16 15 17 15
6 5 6 5 4 4 3 3 3 5 3 3 4 1 1 1 2 1 2 2 0 2 2 1 3 2 4 9 10 8 7 8 8 9 10 11 13 12 11 12 14 14 15 15
3 3 4 3 3 3 3 2 2 1 2 1 2 2 1 1 1 2 0 1 2 4 2 3 3 3 7 8 7 6 8 7 8 9 8 10 11 12 13 13 11 12 14 13
4 4 6 4 4 3 3 4 3 1 2 2 2 1 1 0 3 1 2 2 1 1 2 4 3 3 8 7 6 7 6 6 7 7 6 7 10 11 11 12 12 10 10 12
4 4 4 4 3 2 3 4 4 2 3 3 3 2 1 1 2 2 3 2 2 2 3 3 4 7 6 7 6 6 5 5 5 5 7 8 7 8 8 8 8 9 10 10
4 6 5 4 3 2 2 3 4 3 3 2 1 1 3 1 1 2 3 2 1 3 4 5 7 7 7 6 6 5 4 6 6 5 5 6 6 3 2 2 2 3 5 6
4 4 4 6 5 3 3 3 3 1 2 2 0 2 3 1 2 3 2 1 5 8 7 6 8 8 6 6 5 6 6 5 5 4 4 2 1 4 4 2 3 3 4 4
Wind_Direction
346 346 344 343 349 344 8 321 308 209 104 110 213 223 245 263 280 153 173 238 214 230 294 337 351 120 73 43 122 102 76 112 70 247 299 310 205 163 121 112 299 337 181 285
346 346 345 342 346 5 317 295 264 247 120 245 265 264 258 300 24 18 122 283 293 279 339 342 307 4 95 76 63 72 37 46 38 338 334 323 26 46 31 139 134 214 178 256
346 346 345 341 338 343 315 284 321 338 347 39 7 1 342 336 11 89 76 296 327 302 282 250 2 340 114 121 109 128 95 112 148 189 248 298 298 275 236 189 157 232 225 254
346 346 347 345 339 333 287 267 338 38 329 338 317 296 312 306 307 290 72 8 300 305 264 162 281 298 278 105 151 80 101 164 249 287 292 304 298 301 301 233 220 216 242 234
345 345 346 349 347 334 330 13 358 345 290 283 309 303 258 281 359 11 48 48 292 299 37 17 322 53 24 27 286 106 83 188 213 275 277 279 285 286 280 282 288 276 253 249
343 342 347 352 356 346 348 351 324 280 283 311 311 341 340 5 9 334 337 358 340 24 358 351 315 310 161 178 168 176 144 168 183 238 246 268 279 271 289 331 24 12 48 352
342 339 340 349 357 7 320 293 294 286 302 317 341 6 12 351 359 339 328 324 3 17 331 10 360 350 311 183 251 165 171 198 188 225 262 264 287 14 8 26 45 23 12 17
344 342 340 341 345 342 319 282 295 309 314 325 340 356 335 332 340 327 238 98 129 334 33 55 341 300 288 286 279 45 63 118 101 102 342 300 333 11 2 340 44 18 7 7
341 340 340 341 339 339 320 284 247 284 292 262 319 353 0 348 355 342 25 11 47 50 7 44 223 240 270 250 106 68 54 39 114 141 141 232 351 339 337 333 247 9 6 6
338 338 337 340 337 336 329 280 301 286 291 281 335 7 3 3 1 330 26 340 328 66 348 307 260 267 286 296 128 302 351 31 312 73 178 154 353 321 289 253 288 344 353 356
335 335 336 338 336 337 342 278 268 263 296 292 340 343 19 357 16 11 310 348 358 6 26 24 355 32 11 80 46 12 53 329 6 278 250 228 312 356 12 192 266 305 311 311
332 331 332 333 332 331 342 281 353 321 249 272 324 287 279 52 58 33 331 73 16 7 31 13 5 314 23 64 71 39 59 13 329 52 278 156 223 194 191 207 244 262 266 286
328 327 327 325 324 323 315 289 308 294 245 270 201 247 111 348 112 123 56 26 14 17 273 272 345 82 338 30 54 151 97 341 21 320 52 330 160 218 225 219 231 238 238 246
327 326 320 321 317 311 295 267 301 285 267 270 2 126 124 99 106 137 133 178 308 211 52 66 52 60 16 71 127 96 214 0 323 297 15 349 62 297 303 301 300 303 298 259
321 321 321 318 315 307 283 245 248 246 303 343 307 359 319 323 103 69 35 17 360 67 91 64 40 65 50 99 95 39 339 47 39 270 339 294 308 324 322 333 330 321 310 307
319 321 319 314 308 307 253 234 207 228 236 296 292 189 263 291 63 109 100 6 24 98 105 124 86 170 79 74 85 350 58 52 49 307 360 341 335 344 342 325 313 308 311 305
320 318 315 312 293 213 261 12 328 332 298 243 1 329 287 352 250 131 294 91 18 62 132 60 117 109 85 78 97 43 34 23 37 20 4 339 339 320 316 311 309 306 302 300
321 319 316 323 112 270 282 197 221 311 256 263 122 223 299 355 356 326 197 104 117 339 140 78 82 120 107 75 55 41 38 31 26 1 346 319 314 317 317 311 304 298 290 290
318 317 307 250 217 247 53 10 318 262 278 307 304 191 225 218 221 163 65 36 77 268 62 74 68 44 57 46 36 58 44 32 355 343 348 342 335 331 328 324 313 281 288 283
307 290 221 224 46 314 155 142 202 205 174 244 263 347 251 173 266 73 62 332 165 110 129 93 86 92 85 60 84 68 47 23 6 349 356 352 351 342 337 345 351 347 306 295
355 348 335 326 298 254 208 242 132 273 243 259 252 253 33 208 32 116 210 210 95 86 144 98 150 83 72 82 82 65 45 25 57 31 18 14 352 355 346 353 355 354 6 8
315 298 286 271 260 217 241 147 197 215 197 176 243 148 60 141 106 54 321 164 153 120 182 151 87 103 60 76 76 55 32 44 44 38 30 19 17 13 7 5 10 9 13 12
211 215 245 216 235 18 240 36 59 337 217 181 29 181 208 50 250 166 347 177 97 136 202 85 84 83 84 71 54 38 39 53 41 39 39 31 32 26 24 19 19 20 27 22
245 248 308 221 235 237 194 119 149 210 57 1 335 36 173 88 54 8 338 113 185 343 24 81 133 84 85 84 61 76 47 42 49 47 27 34 42 32 25 29 25 25 42 44
268 265 246 242 297 14 102 102 82 30 44 9 0 34 107 176 182 97 50 267 56 62 77 116 110 92 85 79 83 62 51 45 57 50 38 55 55 45 36 32 37 39 40 44
249 237 268 294 298 133 52 113 74 36 354 342 249 211 69 2 350 219 64 71 296 82 98 114 106 101 101 96 80 84 68 67 71 61 53 59 54 33 34 0 14 62 65 52
264 239 242 261 219 216 5 64 68 33 331 271 268 60 49 270 324 64 92 120 115 122 107 94 101 108 112 100 102 95 84 70 65 59 61 100 232 258 238 238 228 178 153 130